Regional & State Weather Roundups


109 
ASUS43 KLMK 220702
RWRKY 
KENTUCKY REGIONAL WEATHER ROUNDUP
NATIONAL WEATHER SERVICE LOUISVILLE KY
200 AM EST THU FEB 22 2018
NOTE "FAIR" INDICATES FEW OR NO CLOUDS BELOW 12,000 FEET
WITH NO SIGNIFICANT WEATHER AND/OR OBSTRUCTIONS TO VISIBILITY.
KYZ001>023-026-027-061>063-070>075-220800-
WESTERN AND SOUTH CENTRAL KENTUCKY
  
CITY           SKY/WX    TMP DP  RH WIND       PRES   REMARKS
PADUCAH        RAIN      40  38  93 NE10      30.31F FOG     WCI  33  
HENDERSON      RAIN      41  40  96 NE9       30.35F                  
OWENSBORO      RAIN      43  41  93 NE10      30.34F                  
HOPKINSVILLE   HVY RAIN  47  47 100 NW9       30.29R                  
BOWLING GREEN  RAIN      50  49  96 NE8       30.27F FOG              
GLASGOW        NOT AVBL                                               
$$
KYZ024-025-028>034-038-045-046-053-220800-
NORTH CENTRAL KENTUCKY
  
CITY           SKY/WX    TMP DP  RH WIND       PRES   REMARKS
LOUISVILLE/SDF HVY RAIN  45  43  93 N13       30.37F                  
LOUISVILLE/LOU RAIN      45  44  97 N8        30.38F FOG              
FORT KNOX      RAIN      44  44  99 N12       30.32F                  
$$
KYZ035>037-039>044-047>052-055>060-089>105-220800-
NORTHEAST KENTUCKY
  
CITY           SKY/WX    TMP DP  RH WIND       PRES   REMARKS
LEXINGTON      RAIN      47  44  90 N16       30.33F FOG              
COVINGTON      RAIN      42  42 100 NE17      30.41F FOG              
FRANKFORT      HVY RAIN  46  43  89 NE10      30.35F FOG              
$$
KYZ054-064>069-076>088-106>120-220800-
SOUTHEAST KENTUCKY
  
CITY           SKY/WX    TMP DP  RH WIND       PRES   REMARKS
JACKSON        FOG       51  50  96 VRB3      30.33F VSB 3/4          
LONDON         CLOUDY    56  55  97 CALM      30.29F                  
SOMERSET       NOT AVBL                                               
MIDDLESBORO    FAIR      61  59  92 CALM      30.30S                  
MONTICELLO     NOT AVBL                                               
$$